Joint Base Elmendorf-Richardson, AK

12:27 AM AKST on February 24, 2017 (GMT -0900)
Elmendorf Air Force Base

Weather History for PAED - September, 2013

Change the Weather History Date:

Tuesday, September 24, 2013

  Actual Average Record
Temperature  
Mean Temperature 34 °F -  
Max Temperature 42 °F 50 °F 59 °F (1997)
Min Temperature 26 °F 37 °F 19 °F (1992)
Degree Days  
Heating Degree Days 32    
Moisture  
Dew Point 31 °F    
Average Humidity 82    
Maximum Humidity 100    
Minimum Humidity 67    
Precipitation  
Precipitation 0.00 in - - ()
Sea Level Pressure  
Sea Level Pressure 29.89 in    
Wind  
Wind Speed 2 mph (ENE)    
Max Wind Speed 10 mph    
Max Gust Speed -    
Visibility 10 miles    
Events      
Averages and records for this station are not official NWS values.
T = Trace of Precipitation, MM = Missing Value Source: NWS Daily Summary

Daily Weather History Graph

Daily Weather History Graph

Search for Another Location

Airport or City:

Trip Planner

Search our weather history database for the weather conditions in past years. The results will help you decide how hot, cold, wet, or windy it might be!

Date:

Astronomy

Sep. 24, 2013 Rise Set
Actual Time 7:49 AM AKDT 7:51 PM AKDT
Civil Twilight 7:06 AM AKDT 8:34 PM AKDT
Nautical Twilight 6:14 AM AKDT 9:25 PM AKDT
Astronomical Twilight 5:17 AM AKDT 10:22 PM AKDT
Moon 9:45 PM AKDT 2:43 PM AKDT
Length of Visible Light 13h 28m
Length of Day
12h 02m
Waning Gibbous, 72% of the Moon is Illuminated
Sep 24
Waning Gibbous
Sep 26
Last Quarter
Oct 4
New
Oct 11
First Quarter
Oct 18
Full

Hourly Weather History & Observations

Time (AKDT) Temp. Windchill Dew Point Humidity Pressure Visibility Wind Dir Wind Speed Gust Speed Precip Events Conditions
12:58 AM 31.8 °F - 30.6 °F 95% 29.78 in 10.0 mi Calm Calm - N/A   Clear
1:58 AM 33.8 °F - 33.3 °F 98% 29.81 in 10.0 mi NNE 2.3 mph - N/A   Scattered Clouds
2:08 AM 33.8 °F - 33.8 °F 100% 29.81 in 10.0 mi NE 2.3 mph - N/A   Mostly Cloudy
2:13 AM 33.8 °F 30.8 °F 32.0 °F 93% 29.81 in 10.0 mi NE 3.5 mph - N/A   Scattered Clouds
2:58 AM 33.4 °F 25.4 °F 28.9 °F 84% 29.81 in 10.0 mi NE 10.4 mph - N/A   Clear
3:59 AM 32.4 °F 26.9 °F 26.2 °F 78% 29.84 in 10.0 mi NNE 5.8 mph - N/A   Clear
4:58 AM 30.0 °F - 24.3 °F 79% 29.86 in 10.0 mi East 1.2 mph - N/A   Clear
5:58 AM 29.5 °F 24.5 °F 24.4 °F 81% 29.86 in 10.0 mi East 4.6 mph - N/A   Clear
6:58 AM 28.9 °F - 24.8 °F 84% 29.89 in 10.0 mi NE 1.2 mph - N/A   Clear
7:53 AM 26.6 °F - 24.8 °F 93% 29.93 in 10.0 mi Calm Calm - N/A   Mostly Cloudy
7:58 AM 27.5 °F - 25.5 °F 92% 29.93 in 10.0 mi Calm Calm - N/A   Mostly Cloudy
8:13 AM 28.4 °F - 26.6 °F 93% 29.93 in 10.0 mi Calm Calm - N/A   Overcast
8:38 AM 28.4 °F - 26.6 °F 93% 29.94 in 10.0 mi Calm Calm - N/A   Scattered Clouds
8:48 AM 28.4 °F - 26.6 °F 93% 29.93 in 10.0 mi Calm Calm - N/A   Mostly Cloudy
8:58 AM 28.9 °F - 27.0 °F 92% 29.93 in 10.0 mi Calm Calm - N/A   Mostly Cloudy
9:08 AM 28.4 °F 24.6 °F 26.6 °F 93% 29.93 in 10.0 mi East 3.5 mph - N/A   Scattered Clouds
9:58 AM 33.4 °F - 29.8 °F 87% 29.94 in 10.0 mi Variable 2.3 mph - N/A   Clear
10:58 AM 36.1 °F - 27.9 °F 72% 29.96 in 10.0 mi NE 2.3 mph - N/A   Partly Cloudy
11:58 AM 37.9 °F 34.4 °F 30.0 °F 73% 29.96 in 10.0 mi Variable 4.6 mph - N/A   Clear
12:58 PM 39.4 °F 35.2 °F 29.7 °F 68% 29.96 in 10.0 mi NE 5.8 mph - N/A   Clear
1:58 PM 40.6 °F 36.7 °F 31.1 °F 69% 29.96 in 10.0 mi Variable 5.8 mph - N/A   Clear
2:58 PM 41.4 °F 36.2 °F 32.2 °F 70% 29.96 in 10.0 mi East 8.1 mph - N/A   Clear
3:58 PM 41.5 °F 39.6 °F 31.3 °F 67% 29.96 in 10.0 mi ENE 3.5 mph - N/A   Clear
4:58 PM 41.2 °F - 33.1 °F 73% 29.94 in 10.0 mi Calm Calm - N/A   Clear
5:58 PM 41.4 °F 39.4 °F 34.3 °F 76% 29.91 in 10.0 mi ENE 3.5 mph - N/A   Overcast
6:58 PM 41.2 °F - 34.7 °F 78% 29.91 in 10.0 mi Variable 1.2 mph - N/A   Overcast
7:58 PM 40.6 °F - 35.2 °F 81% 29.89 in 10.0 mi Calm Calm - N/A   Overcast
8:58 PM 40.8 °F - 35.2 °F 80% 29.88 in 10.0 mi Calm Calm - N/A   Overcast
9:23 PM 41.0 °F - 35.6 °F 81% 29.87 in 3.0 mi Calm Calm - N/A   Haze
9:33 PM 41.0 °F - 35.6 °F 81% 29.88 in 10.0 mi Calm Calm - N/A   Overcast
9:58 PM 41.2 °F - 34.9 °F 78% 29.86 in 10.0 mi Calm Calm - N/A   Overcast
10:25 PM 41.0 °F - 33.8 °F 76% 29.85 in 10.0 mi Calm Calm - N/A   Overcast
10:27 PM 41.0 °F - 33.8 °F 76% 29.85 in 10.0 mi Calm Calm - N/A   Overcast
10:29 PM 41.0 °F - 33.8 °F 76% 29.85 in 10.0 mi Calm Calm - N/A   Overcast
10:58 PM 40.5 °F - 35.2 °F 82% 29.81 in 10.0 mi Variable 2.3 mph - N/A   Overcast
11:58 PM 41.9 °F 39.0 °F 32.9 °F 70% 29.81 in 10.0 mi Variable 4.6 mph - N/A   Scattered Clouds